Time,TemperatureF,DewpointF,PressureIn,WindDirection,WindDirectionDegrees,WindSpeedMPH,WindSpeedGustMPH,Humidity,HourlyPrecipIn,Conditions,Clouds,dailyrainin,SoftwareType,DateUTC
2013-03-04 00:00:00,23.3,15.9,29.98,WSW,238,6.0,6.0,73,0.00,,,0.00,Wunderground v.1.15,2013-03-04 05:00:00,
2013-03-04 00:04:00,23.2,16.1,29.97,WSW,242,4.0,6.0,74,0.00,,,0.00,Wunderground v.1.15,2013-03-04 05:04:00,
2013-03-04 00:06:00,23.2,16.1,29.97,WNW,294,4.0,6.0,74,0.00,,,0.00,Wunderground v.1.15,2013-03-04 05:06:00,
2013-03-04 00:08:00,23.1,16.0,29.98,West,273,3.0,9.0,74,0.00,,,0.00,Wunderground v.1.15,2013-03-04 05:08:00,
2013-03-04 00:14:00,23.1,16.0,29.98,NW,318,5.0,5.0,74,0.00,,,0.00,Wunderground v.1.15,2013-03-04 05:14:00,
2013-03-04 00:20:00,23.1,16.4,29.98,SW,235,4.0,7.0,75,0.00,,,0.00,Wunderground v.1.15,2013-03-04 05:20:00,
2013-03-04 00:26:00,23.0,16.3,29.97,WNW,303,5.0,8.0,75,0.00,,,0.00,Wunderground v.1.15,2013-03-04 05:26:00,
2013-03-04 00:32:00,22.9,15.8,29.98,NNE,13,6.0,9.0,74,0.00,,,0.00,Wunderground v.1.15,2013-03-04 05:32:00,
2013-03-04 00:38:00,22.8,15.8,29.98,West,277,4.0,9.0,74,0.00,,,0.00,Wunderground v.1.15,2013-03-04 05:38:00,
2013-03-04 00:44:00,22.6,15.6,29.98,NW,318,3.0,4.0,74,0.00,,,0.00,Wunderground v.1.15,2013-03-04 05:44:00,
2013-03-04 00:50:00,22.5,15.1,29.98,SSW,207,2.0,9.0,73,0.00,,,0.00,Wunderground v.1.15,2013-03-04 05:50:00,
2013-03-04 00:56:00,22.6,15.2,29.98,WSW,246,5.0,9.0,73,0.00,,,0.00,Wunderground v.1.15,2013-03-04 05:56:00,
2013-03-04 01:02:00,22.7,15.3,29.98,West,259,4.0,5.0,73,0.00,,,0.00,Wunderground v.1.15,2013-03-04 06:02:00,
2013-03-04 01:08:00,22.7,16.0,29.98,NNW,329,3.0,6.0,75,0.00,,,0.00,Wunderground v.1.15,2013-03-04 06:08:00,
2013-03-04 01:14:00,22.8,16.1,29.98,West,273,5.0,11.0,75,0.00,,,0.00,Wunderground v.1.15,2013-03-04 06:14:00,
2013-03-04 01:20:00,22.8,16.1,29.98,West,273,6.0,6.0,75,0.00,,,0.00,Wunderground v.1.15,2013-03-04 06:20:00,
2013-03-04 01:26:00,22.8,16.4,29.98,North,5,4.0,6.0,76,0.00,,,0.00,Wunderground v.1.15,2013-03-04 06:26:00,
2013-03-04 01:32:00,22.8,16.7,29.98,West,279,3.0,5.0,77,0.00,,,0.00,Wunderground v.1.15,2013-03-04 06:32:00,
2013-03-04 01:38:00,22.8,16.7,29.98,West,281,2.0,5.0,77,0.00,,,0.00,Wunderground v.1.15,2013-03-04 06:38:00,
2013-03-04 01:44:00,22.7,16.6,29.98,West,281,0.0,2.0,77,0.00,,,0.00,Wunderground v.1.15,2013-03-04 06:44:00,
2013-03-04 01:50:00,22.7,16.9,29.98,ENE,68,1.0,2.0,78,0.00,,,0.00,Wunderground v.1.15,2013-03-04 06:50:00,
2013-03-04 01:56:00,22.7,17.2,29.98,East,82,1.0,3.0,79,0.00,,,0.00,Wunderground v.1.15,2013-03-04 06:56:00,
2013-03-04 02:02:00,22.7,17.2,29.98,SE,127,2.0,2.0,79,0.00,,,0.00,Wunderground v.1.15,2013-03-04 07:02:00,
2013-03-04 02:08:00,22.6,17.1,29.98,NNE,15,2.0,5.0,79,0.00,,,0.00,Wunderground v.1.15,2013-03-04 07:08:00,
2013-03-04 02:14:00,22.7,17.2,29.98,ENE,58,2.0,2.0,79,0.00,,,0.00,Wunderground v.1.15,2013-03-04 07:14:00,
2013-03-04 02:20:00,22.6,17.4,29.98,ENE,71,1.0,1.0,80,0.00,,,0.00,Wunderground v.1.15,2013-03-04 07:20:00,
2013-03-04 02:26:00,22.6,17.4,29.98,ENE,71,1.0,3.0,80,0.00,,,0.00,Wunderground v.1.15,2013-03-04 07:26:00,
2013-03-04 02:32:00,22.7,17.5,29.98,SE,146,1.0,1.0,80,0.00,,,0.00,Wunderground v.1.15,2013-03-04 07:32:00,
2013-03-04 02:38:00,22.7,17.5,29.98,SSW,209,1.0,6.0,80,0.00,,,0.00,Wunderground v.1.15,2013-03-04 07:38:00,
2013-03-04 02:44:00,22.9,16.2,29.99,NW,304,4.0,8.0,75,0.00,,,0.00,Wunderground v.1.15,2013-03-04 07:44:00,
2013-03-04 02:50:00,23.1,16.0,29.98,WNW,284,6.0,7.0,74,0.00,,,0.00,Wunderground v.1.15,2013-03-04 07:50:00,
2013-03-04 02:56:00,23.1,16.0,29.98,NW,323,6.0,8.0,74,0.00,,,0.00,Wunderground v.1.15,2013-03-04 07:56:00,
2013-03-04 03:02:00,23.0,15.9,29.98,West,275,5.0,6.0,74,0.00,,,0.00,Wunderground v.1.15,2013-03-04 08:02:00,
2013-03-04 03:08:00,23.0,16.3,29.98,West,267,5.0,7.0,75,0.00,,,0.00,Wunderground v.1.15,2013-03-04 08:08:00,
2013-03-04 03:14:00,23.0,16.3,29.98,SW,229,6.0,10.0,75,0.00,,,0.00,Wunderground v.1.15,2013-03-04 08:14:00,
2013-03-04 03:20:00,23.0,16.6,29.98,WNW,297,6.0,6.0,76,0.00,,,0.00,Wunderground v.1.15,2013-03-04 08:20:00,
2013-03-04 03:26:00,22.9,16.5,29.99,SW,225,5.0,10.0,76,0.00,,,0.00,Wunderground v.1.15,2013-03-04 08:26:00,
2013-03-04 03:32:00,22.9,16.2,29.99,WSW,244,6.0,7.0,75,0.00,,,0.00,Wunderground v.1.15,2013-03-04 08:32:00,
2013-03-04 03:38:00,22.9,15.8,29.99,SW,222,6.0,11.0,74,0.00,,,0.00,Wunderground v.1.15,2013-03-04 08:38:00,
2013-03-04 03:44:00,22.9,16.2,29.99,SW,230,5.0,6.0,75,0.00,,,0.00,Wunderground v.1.15,2013-03-04 08:44:00,
2013-03-04 03:50:00,22.9,15.5,30.00,WSW,249,4.0,5.0,73,0.00,,,0.00,Wunderground v.1.15,2013-03-04 08:50:00,
2013-03-04 03:56:00,22.9,15.5,29.99,SW,223,4.0,5.0,73,0.00,,,0.00,Wunderground v.1.15,2013-03-04 08:56:00,
2013-03-04 04:02:00,22.9,15.5,30.00,West,276,4.0,8.0,73,0.00,,,0.00,Wunderground v.1.15,2013-03-04 09:02:00,
2013-03-04 04:08:00,22.9,15.5,30.00,NE,44,4.0,8.0,73,0.00,,,0.00,Wunderground v.1.15,2013-03-04 09:08:00,
2013-03-04 04:14:00,22.9,15.5,30.00,SSW,198,1.0,4.0,73,0.00,,,0.00,Wunderground v.1.15,2013-03-04 09:14:00,
2013-03-04 04:20:00,22.9,15.2,30.00,NW,304,4.0,7.0,72,0.00,,,0.00,Wunderground v.1.15,2013-03-04 09:20:00,
2013-03-04 04:26:00,22.9,15.2,30.00,WSW,241,6.0,16.0,72,0.00,,,0.00,Wunderground v.1.15,2013-03-04 09:26:00,
2013-03-04 04:32:00,23.0,15.3,30.00,WNW,282,5.0,6.0,72,0.00,,,0.00,Wunderground v.1.15,2013-03-04 09:32:00,
2013-03-04 04:38:00,23.0,15.6,30.00,WSW,248,5.0,8.0,73,0.00,,,0.00,Wunderground v.1.15,2013-03-04 09:38:00,
2013-03-04 04:44:00,23.0,15.6,30.00,West,275,5.0,9.0,73,0.00,,,0.00,Wunderground v.1.15,2013-03-04 09:44:00,
2013-03-04 04:50:00,22.9,15.5,30.00,SSW,209,6.0,10.0,73,0.00,,,0.00,Wunderground v.1.15,2013-03-04 09:50:00,
2013-03-04 04:56:00,22.9,15.8,30.00,SW,219,8.0,10.0,74,0.00,,,0.00,Wunderground v.1.15,2013-03-04 09:56:00,
2013-03-04 05:02:00,22.9,15.5,30.01,SW,228,8.0,13.0,73,0.00,,,0.00,Wunderground v.1.15,2013-03-04 10:02:00,
2013-03-04 05:08:00,22.9,16.5,30.01,WSW,249,9.0,13.0,76,0.00,,,0.00,Wunderground v.1.15,2013-03-04 10:08:00,
2013-03-04 05:14:00,22.7,16.0,30.01,West,273,7.0,7.0,75,0.00,,,0.00,Wunderground v.1.15,2013-03-04 10:14:00,
2013-03-04 05:20:00,22.7,15.7,30.02,WSW,242,6.0,10.0,74,0.00,,,0.00,Wunderground v.1.15,2013-03-04 10:20:00,
2013-03-04 05:26:00,22.8,14.8,30.01,NNW,347,6.0,14.0,71,0.00,,,0.00,Wunderground v.1.15,2013-03-04 10:26:00,
2013-03-04 05:32:00,22.8,14.8,30.02,WSW,257,6.0,7.0,71,0.00,,,0.00,Wunderground v.1.15,2013-03-04 10:32:00,
2013-03-04 05:38:00,22.6,14.9,30.02,WNW,302,5.0,7.0,72,0.00,,,0.00,Wunderground v.1.15,2013-03-04 10:38:00,
2013-03-04 05:44:00,22.4,15.4,30.03,WNW,300,5.0,9.0,74,0.00,,,0.00,Wunderground v.1.15,2013-03-04 10:44:00,
2013-03-04 05:50:00,22.4,15.7,30.03,West,281,6.0,6.0,75,0.00,,,0.00,Wunderground v.1.15,2013-03-04 10:50:00,
2013-03-04 05:56:00,22.3,15.9,30.03,NW,316,5.0,6.0,76,0.00,,,0.00,Wunderground v.1.15,2013-03-04 10:56:00,
2013-03-04 06:02:00,22.3,16.2,30.03,NW,306,4.0,4.0,77,0.00,,,0.00,Wunderground v.1.15,2013-03-04 11:02:00,
2013-03-04 06:08:00,22.2,16.1,30.03,NW,309,3.0,5.0,77,0.00,,,0.00,Wunderground v.1.15,2013-03-04 11:08:00,
2013-03-04 06:14:00,22.3,15.6,30.03,West,271,3.0,9.0,75,0.00,,,0.00,Wunderground v.1.15,2013-03-04 11:14:00,
2013-03-04 06:20:00,22.2,14.9,30.04,WNW,288,5.0,7.0,73,0.00,,,0.00,Wunderground v.1.15,2013-03-04 11:20:00,
2013-03-04 06:26:00,22.2,14.9,30.04,WNW,292,4.0,7.0,73,0.00,,,0.00,Wunderground v.1.15,2013-03-04 11:26:00,
2013-03-04 06:32:00,22.1,14.4,30.04,WNW,294,4.0,5.0,72,0.00,,,0.00,Wunderground v.1.15,2013-03-04 11:32:00,
2013-03-04 06:38:00,22.1,14.1,30.04,West,273,6.0,13.0,71,0.00,,,0.00,Wunderground v.1.15,2013-03-04 11:38:00,
2013-03-04 06:44:00,22.1,14.1,30.04,WNW,299,7.0,7.0,71,0.00,,,0.00,Wunderground v.1.15,2013-03-04 11:44:00,
2013-03-04 06:50:00,22.0,14.3,30.04,NE,44,5.0,5.0,72,0.00,,,0.00,Wunderground v.1.15,2013-03-04 11:50:00,
2013-03-04 06:56:00,22.1,14.4,30.04,NE,56,2.0,5.0,72,0.00,,,0.00,Wunderground v.1.15,2013-03-04 11:56:00,
2013-03-04 07:02:00,22.1,14.8,30.04,West,275,3.0,8.0,73,0.00,,,0.00,Wunderground v.1.15,2013-03-04 12:02:00,
2013-03-04 07:08:00,22.2,14.9,30.05,WNW,299,4.0,8.0,73,0.00,,,0.00,Wunderground v.1.15,2013-03-04 12:08:00,
2013-03-04 07:14:00,22.2,14.9,30.05,NW,304,1.0,3.0,73,0.00,,,0.00,Wunderground v.1.15,2013-03-04 12:14:00,
2013-03-04 07:20:00,22.2,14.9,30.05,NNW,331,2.0,2.0,73,0.00,,,0.00,Wunderground v.1.15,2013-03-04 12:20:00,
2013-03-04 07:26:00,22.3,15.3,30.05,WNW,284,4.0,12.0,74,0.00,,,0.00,Wunderground v.1.15,2013-03-04 12:26:00,
2013-03-04 07:32:00,22.2,15.2,30.05,NW,309,6.0,12.0,74,0.00,,,0.00,Wunderground v.1.15,2013-03-04 12:32:00,
2013-03-04 07:38:00,22.2,15.2,30.05,SSW,213,5.0,12.0,74,0.00,,,0.00,Wunderground v.1.15,2013-03-04 12:38:00,
2013-03-04 07:44:00,22.6,15.2,30.05,SW,228,6.0,9.0,73,0.00,,,0.00,Wunderground v.1.15,2013-03-04 12:44:00,
2013-03-04 07:50:00,22.9,14.9,30.06,SW,236,2.0,3.0,71,0.00,,,0.00,Wunderground v.1.15,2013-03-04 12:50:00,
2013-03-04 07:56:00,23.0,14.7,30.06,WSW,244,4.0,5.0,70,0.00,,,0.00,Wunderground v.1.15,2013-03-04 12:56:00,
2013-03-04 08:02:00,23.1,14.4,30.06,SSW,200,5.0,6.0,69,0.00,,,0.00,Wunderground v.1.15,2013-03-04 13:02:00,
2013-03-04 08:08:00,23.3,15.0,30.06,West,261,8.0,15.0,70,0.00,,,0.00,Wunderground v.1.15,2013-03-04 13:08:00,
2013-03-04 08:14:00,23.3,14.6,30.06,West,263,6.0,8.0,69,0.00,,,0.00,Wunderground v.1.15,2013-03-04 13:14:00,
2013-03-04 08:20:00,23.5,15.5,30.06,South,189,2.0,2.0,71,0.00,,,0.00,Wunderground v.1.15,2013-03-04 13:20:00,
2013-03-04 08:26:00,23.5,15.5,30.06,WSW,249,5.0,10.0,71,0.00,,,0.00,Wunderground v.1.15,2013-03-04 13:26:00,
2013-03-04 08:32:00,23.3,15.6,30.07,NW,317,8.0,8.0,72,0.00,,,0.00,Wunderground v.1.15,2013-03-04 13:32:00,
2013-03-04 08:38:00,23.4,16.0,30.07,WNW,303,6.0,8.0,73,0.00,,,0.00,Wunderground v.1.15,2013-03-04 13:38:00,
2013-03-04 08:44:00,23.4,15.4,30.07,SW,235,4.0,7.0,71,0.00,,,0.00,Wunderground v.1.15,2013-03-04 13:44:00,
2013-03-04 08:50:00,23.5,15.8,30.07,West,276,4.0,14.0,72,0.00,,,0.00,Wunderground v.1.15,2013-03-04 13:50:00,
2013-03-04 08:56:00,23.4,15.7,30.07,WNW,291,7.0,15.0,72,0.00,,,0.00,Wunderground v.1.15,2013-03-04 13:56:00,
2013-03-04 09:02:00,23.5,15.8,30.07,WNW,300,7.0,9.0,72,0.00,,,0.00,Wunderground v.1.15,2013-03-04 14:02:00,
2013-03-04 09:08:00,23.8,16.4,30.07,West,277,8.0,11.0,73,0.00,,,0.00,Wunderground v.1.15,2013-03-04 14:08:00,
2013-03-04 09:14:00,23.8,16.1,30.07,SW,229,7.0,9.0,72,0.00,,,0.00,Wunderground v.1.15,2013-03-04 14:14:00,
2013-03-04 09:20:00,24.0,16.9,30.07,WSW,257,5.0,5.0,74,0.00,,,0.00,Wunderground v.1.15,2013-03-04 14:20:00,
2013-03-04 09:26:00,24.0,16.6,30.07,SW,228,7.0,18.0,73,0.00,,,0.00,Wunderground v.1.15,2013-03-04 14:26:00,
2013-03-04 09:32:00,24.2,16.5,30.08,NW,324,11.0,11.0,72,0.00,,,0.00,Wunderground v.1.15,2013-03-04 14:32:00,
2013-03-04 09:38:00,24.4,16.3,30.08,WNW,298,9.0,12.0,71,0.00,,,0.00,Wunderground v.1.15,2013-03-04 14:38:00,
2013-03-04 09:44:00,24.6,16.5,30.08,NW,306,10.0,11.0,71,0.00,,,0.00,Wunderground v.1.15,2013-03-04 14:44:00,
2013-03-04 09:50:00,24.5,16.8,30.08,NW,308,8.0,8.0,72,0.00,,,0.00,Wunderground v.1.15,2013-03-04 14:50:00,
2013-03-04 09:56:00,24.6,16.9,30.08,WSW,252,7.0,16.0,72,0.00,,,0.00,Wunderground v.1.15,2013-03-04 14:56:00,
2013-03-04 10:02:00,24.8,17.4,30.08,WSW,246,8.0,10.0,73,0.00,,,0.00,Wunderground v.1.15,2013-03-04 15:02:00,
2013-03-04 10:08:00,24.6,16.9,30.07,WNW,302,8.0,10.0,72,0.00,,,0.00,Wunderground v.1.15,2013-03-04 15:08:00,
2013-03-04 10:14:00,25.3,17.2,30.08,WNW,286,6.0,9.0,71,0.00,,,0.00,Wunderground v.1.15,2013-03-04 15:14:00,
2013-03-04 10:20:00,25.3,16.9,30.08,WSW,251,7.0,9.0,70,0.00,,,0.00,Wunderground v.1.15,2013-03-04 15:20:00,
2013-03-04 10:26:00,25.8,17.7,30.08,West,276,6.0,9.0,71,0.00,,,0.00,Wunderground v.1.15,2013-03-04 15:26:00,
2013-03-04 10:32:00,26.1,17.3,30.08,WSW,252,8.0,11.0,69,0.00,,,0.00,Wunderground v.1.15,2013-03-04 15:32:00,
2013-03-04 10:38:00,26.2,17.4,30.08,WNW,290,10.0,16.0,69,0.00,,,0.00,Wunderground v.1.15,2013-03-04 15:38:00,
2013-03-04 10:44:00,26.6,18.5,30.07,West,261,10.0,11.0,71,0.00,,,0.00,Wunderground v.1.15,2013-03-04 15:44:00,
2013-03-04 10:50:00,26.8,18.3,30.07,West,261,9.0,9.0,70,0.00,,,0.00,Wunderground v.1.15,2013-03-04 15:50:00,
2013-03-04 10:56:00,27.7,19.2,30.07,SW,226,9.0,21.0,70,0.00,,,0.00,Wunderground v.1.15,2013-03-04 15:56:00,
2013-03-04 11:02:00,27.5,19.0,30.08,SW,230,9.0,10.0,70,0.00,,,0.00,Wunderground v.1.15,2013-03-04 16:02:00,
2013-03-04 11:08:00,27.9,18.4,30.08,WSW,249,9.0,18.0,67,0.00,,,0.00,Wunderground v.1.15,2013-03-04 16:08:00,
2013-03-04 11:14:00,28.0,18.5,30.08,SW,234,10.0,10.0,67,0.00,,,0.00,Wunderground v.1.15,2013-03-04 16:14:00,
2013-03-04 11:20:00,28.0,18.5,30.08,West,271,10.0,14.0,67,0.00,,,0.00,Wunderground v.1.15,2013-03-04 16:20:00,
2013-03-04 11:26:00,28.5,18.6,30.08,WNW,289,11.0,15.0,66,0.00,,,0.00,Wunderground v.1.15,2013-03-04 16:26:00,
2013-03-04 11:32:00,28.4,18.8,30.08,West,270,12.0,21.0,67,0.00,,,0.00,Wunderground v.1.15,2013-03-04 16:32:00,
2013-03-04 11:38:00,27.4,18.6,30.08,West,265,14.0,21.0,69,0.00,,,0.00,Wunderground v.1.15,2013-03-04 16:38:00,
2013-03-04 11:44:00,27.8,18.9,30.07,WNW,287,12.0,14.0,69,0.00,,,0.00,Wunderground v.1.15,2013-03-04 16:44:00,
2013-03-04 11:50:00,27.7,18.5,30.08,WSW,242,10.0,10.0,68,0.00,,,0.00,Wunderground v.1.15,2013-03-04 16:50:00,
2013-03-04 11:56:00,27.9,19.0,30.07,West,278,9.0,13.0,69,0.00,,,0.00,Wunderground v.1.15,2013-03-04 16:56:00,
2013-03-04 12:02:00,27.7,18.5,30.07,SSW,196,10.0,16.0,68,0.00,,,0.00,Wunderground v.1.15,2013-03-04 17:02:00,
2013-03-04 12:08:00,28.0,19.8,30.07,NW,325,10.0,16.0,71,0.00,,,0.00,Wunderground v.1.15,2013-03-04 17:08:00,
2013-03-04 12:14:00,28.3,19.4,30.07,WNW,297,8.0,13.0,69,0.00,,,0.00,Wunderground v.1.15,2013-03-04 17:14:00,
2013-03-04 12:20:00,28.0,18.5,30.07,West,269,11.0,11.0,67,0.00,,,0.00,Wunderground v.1.15,2013-03-04 17:20:00,
2013-03-04 12:26:00,28.1,18.2,30.06,WSW,242,11.0,11.0,66,0.00,,,0.00,Wunderground v.1.15,2013-03-04 17:26:00,
2013-03-04 12:32:00,28.9,19.3,30.06,SW,236,8.0,15.0,67,0.00,,,0.00,Wunderground v.1.15,2013-03-04 17:32:00,
2013-03-04 12:38:00,28.3,18.4,30.06,West,278,11.0,18.0,66,0.00,,,0.00,Wunderground v.1.15,2013-03-04 17:38:00,
2013-03-04 12:44:00,28.2,19.0,30.06,WSW,244,10.0,12.0,68,0.00,,,0.00,Wunderground v.1.15,2013-03-04 17:44:00,
2013-03-04 12:50:00,28.8,18.9,30.06,West,269,6.0,6.0,66,0.00,,,0.00,Wunderground v.1.15,2013-03-04 17:50:00,
2013-03-04 12:56:00,28.8,19.2,30.06,West,271,9.0,15.0,67,0.00,,,0.00,Wunderground v.1.15,2013-03-04 17:56:00,
2013-03-04 13:02:00,28.9,19.7,30.06,West,259,12.0,14.0,68,0.00,,,0.00,Wunderground v.1.15,2013-03-04 18:02:00,
2013-03-04 13:08:00,29.1,19.8,30.05,WNW,300,11.0,14.0,68,0.00,,,0.00,Wunderground v.1.15,2013-03-04 18:08:00,
2013-03-04 13:14:00,28.9,20.7,30.05,NNW,327,9.0,11.0,71,0.00,,,0.00,Wunderground v.1.15,2013-03-04 18:14:00,
2013-03-04 13:20:00,30.1,20.5,30.05,WSW,253,7.0,10.0,67,0.00,,,0.00,Wunderground v.1.15,2013-03-04 18:20:00,
2013-03-04 13:26:00,30.6,21.3,30.04,West,281,9.0,14.0,68,0.00,,,0.00,Wunderground v.1.15,2013-03-04 18:26:00,
2013-03-04 13:30:00,30.5,20.5,30.04,WSW,255,9.0,13.0,66,0.00,,,0.00,Wunderground v.1.15,2013-03-04 18:30:00,
2013-03-04 13:32:00,30.1,19.7,30.05,WSW,246,10.0,13.0,65,0.00,,,0.00,Wunderground v.1.15,2013-03-04 18:32:00,
2013-03-04 13:34:00,30.3,19.9,30.04,West,271,10.0,13.0,65,0.00,,,0.00,Wunderground v.1.15,2013-03-04 18:34:00,
2013-03-04 13:38:00,30.4,20.4,30.05,SW,229,11.0,16.0,66,0.00,,,0.00,Wunderground v.1.15,2013-03-04 18:38:00,
2013-03-04 13:44:00,30.6,20.9,30.04,West,271,10.0,14.0,67,0.00,,,0.00,Wunderground v.1.15,2013-03-04 18:44:00,
2013-03-04 13:50:00,30.7,20.0,30.04,WSW,240,11.0,14.0,64,0.00,,,0.00,Wunderground v.1.15,2013-03-04 18:50:00,
2013-03-04 13:56:00,30.6,20.6,30.04,SW,235,12.0,18.0,66,0.00,,,0.00,Wunderground v.1.15,2013-03-04 18:56:00,
2013-03-04 14:02:00,30.7,20.0,30.04,WSW,244,11.0,19.0,64,0.00,,,0.00,Wunderground v.1.15,2013-03-04 19:02:00,
2013-03-04 14:08:00,30.7,19.6,30.04,WSW,237,12.0,19.0,63,0.00,,,0.00,Wunderground v.1.15,2013-03-04 19:08:00,
2013-03-04 14:14:00,31.1,21.4,30.04,WSW,252,8.0,12.0,67,0.00,,,0.00,Wunderground v.1.15,2013-03-04 19:14:00,
2013-03-04 14:20:00,31.7,20.9,30.04,WSW,254,8.0,8.0,64,0.00,,,0.00,Wunderground v.1.15,2013-03-04 19:20:00,
2013-03-04 14:26:00,31.0,19.5,30.04,West,261,8.0,9.0,62,0.00,,,0.00,Wunderground v.1.15,2013-03-04 19:26:00,
2013-03-04 14:32:00,31.2,20.4,30.04,WNW,295,8.0,11.0,64,0.00,,,0.00,Wunderground v.1.15,2013-03-04 19:32:00,
2013-03-04 14:38:00,31.3,20.9,30.04,NW,315,7.0,11.0,65,0.00,,,0.00,Wunderground v.1.15,2013-03-04 19:38:00,
2013-03-04 14:44:00,32.1,20.9,30.04,WSW,252,9.0,10.0,63,0.00,,,0.00,Wunderground v.1.15,2013-03-04 19:44:00,
2013-03-04 14:50:00,32.9,20.9,30.04,West,266,10.0,13.0,61,0.00,,,0.00,Wunderground v.1.15,2013-03-04 19:50:00,
2013-03-04 14:56:00,32.3,20.3,30.04,WSW,242,10.0,13.0,61,0.00,,,0.00,Wunderground v.1.15,2013-03-04 19:56:00,
2013-03-04 15:02:00,32.3,20.3,30.04,WSW,245,10.0,11.0,61,0.00,,,0.00,Wunderground v.1.15,2013-03-04 20:02:00,
2013-03-04 15:08:00,32.9,20.1,30.04,WSW,244,8.0,11.0,59,0.00,,,0.00,Wunderground v.1.15,2013-03-04 20:08:00,
2013-03-04 15:14:00,32.1,19.0,30.04,SSW,213,10.0,12.0,58,0.00,,,0.00,Wunderground v.1.15,2013-03-04 20:14:00,
2013-03-04 15:20:00,31.9,19.2,30.04,WSW,240,9.0,9.0,59,0.00,,,0.00,Wunderground v.1.15,2013-03-04 20:20:00,
2013-03-04 15:26:00,31.5,19.2,30.04,WNW,289,10.0,16.0,60,0.00,,,0.00,Wunderground v.1.15,2013-03-04 20:26:00,
2013-03-04 15:32:00,31.4,18.7,30.04,WSW,258,10.0,11.0,59,0.00,,,0.00,Wunderground v.1.15,2013-03-04 20:32:00,
2013-03-04 15:38:00,31.5,19.2,30.04,West,279,9.0,15.0,60,0.00,,,0.00,Wunderground v.1.15,2013-03-04 20:38:00,
2013-03-04 15:44:00,31.5,19.2,30.04,WSW,258,9.0,10.0,60,0.00,,,0.00,Wunderground v.1.15,2013-03-04 20:44:00,
2013-03-04 15:50:00,31.9,19.6,30.04,WSW,251,9.0,9.0,60,0.00,,,0.00,Wunderground v.1.15,2013-03-04 20:50:00,
2013-03-04 15:56:00,32.5,19.3,30.04,West,274,9.0,19.0,58,0.00,,,0.00,Wunderground v.1.15,2013-03-04 20:56:00,
2013-03-04 16:02:00,33.2,20.0,30.04,West,266,10.0,11.0,58,0.00,,,0.00,Wunderground v.1.15,2013-03-04 21:02:00,
2013-03-04 16:08:00,33.2,19.6,30.04,WSW,253,11.0,17.0,57,0.00,,,0.00,Wunderground v.1.15,2013-03-04 21:08:00,
2013-03-04 16:14:00,33.6,19.6,30.03,West,281,11.0,14.0,56,0.00,,,0.00,Wunderground v.1.15,2013-03-04 21:14:00,
2013-03-04 16:20:00,33.5,20.3,30.04,West,265,9.0,13.0,58,0.00,,,0.00,Wunderground v.1.15,2013-03-04 21:20:00,
2013-03-04 16:26:00,34.3,20.2,30.04,WSW,248,9.0,13.0,56,0.00,,,0.00,Wunderground v.1.15,2013-03-04 21:26:00,
2013-03-04 16:32:00,34.4,19.9,30.04,WSW,247,10.0,10.0,55,0.00,,,0.00,Wunderground v.1.15,2013-03-04 21:32:00,
2013-03-04 16:38:00,34.5,20.4,30.04,WSW,237,8.0,10.0,56,0.00,,,0.00,Wunderground v.1.15,2013-03-04 21:38:00,
2013-03-04 16:44:00,34.1,20.0,30.04,West,271,7.0,8.0,56,0.00,,,0.00,Wunderground v.1.15,2013-03-04 21:44:00,
2013-03-04 16:50:00,34.1,20.0,30.04,WSW,238,8.0,9.0,56,0.00,,,0.00,Wunderground v.1.15,2013-03-04 21:50:00,
2013-03-04 16:56:00,34.4,19.9,30.04,WSW,239,8.0,9.0,55,0.00,,,0.00,Wunderground v.1.15,2013-03-04 21:56:00,
2013-03-04 17:02:00,33.9,19.4,30.04,WNW,297,4.0,6.0,55,0.00,,,0.00,Wunderground v.1.15,2013-03-04 22:02:00,
2013-03-04 17:08:00,33.8,19.7,30.04,WNW,289,6.0,14.0,56,0.00,,,0.00,Wunderground v.1.15,2013-03-04 22:08:00,
2013-03-04 17:14:00,33.8,19.7,30.04,SW,229,9.0,10.0,56,0.00,,,0.00,Wunderground v.1.15,2013-03-04 22:14:00,
2013-03-04 17:20:00,33.6,19.6,30.04,WSW,238,8.0,8.0,56,0.00,,,0.00,Wunderground v.1.15,2013-03-04 22:20:00,
2013-03-04 17:26:00,33.6,19.6,30.04,WSW,250,6.0,8.0,56,0.00,,,0.00,Wunderground v.1.15,2013-03-04 22:26:00,
2013-03-04 17:32:00,33.6,19.1,30.04,West,269,4.0,6.0,55,0.00,,,0.00,Wunderground v.1.15,2013-03-04 22:32:00,
2013-03-04 17:38:00,33.2,19.2,30.04,SW,225,5.0,6.0,56,0.00,,,0.00,Wunderground v.1.15,2013-03-04 22:38:00,
2013-03-04 17:44:00,33.0,19.4,30.05,WNW,297,5.0,6.0,57,0.00,,,0.00,Wunderground v.1.15,2013-03-04 22:44:00,
2013-03-04 17:50:00,32.8,19.2,30.05,West,273,4.0,5.0,57,0.00,,,0.00,Wunderground v.1.15,2013-03-04 22:50:00,
2013-03-04 17:56:00,32.6,19.4,30.05,West,267,5.0,6.0,58,0.00,,,0.00,Wunderground v.1.15,2013-03-04 22:56:00,
2013-03-04 18:02:00,32.4,19.7,30.05,WSW,248,3.0,3.0,59,0.00,,,0.00,Wunderground v.1.15,2013-03-04 23:02:00,
2013-03-04 18:08:00,32.0,19.7,30.05,West,261,4.0,8.0,60,0.00,,,0.00,Wunderground v.1.15,2013-03-04 23:08:00,
2013-03-04 18:14:00,32.0,19.3,30.05,SW,234,5.0,6.0,59,0.00,,,0.00,Wunderground v.1.15,2013-03-04 23:14:00,
2013-03-04 18:20:00,32.1,19.4,30.05,WSW,239,4.0,4.0,59,0.00,,,0.00,Wunderground v.1.15,2013-03-04 23:20:00,
2013-03-04 18:26:00,31.9,19.6,30.05,West,276,3.0,10.0,60,0.00,,,0.00,Wunderground v.1.15,2013-03-04 23:26:00,
2013-03-04 18:32:00,31.7,19.8,30.05,SSW,213,4.0,4.0,61,0.00,,,0.00,Wunderground v.1.15,2013-03-04 23:32:00,
2013-03-04 18:38:00,31.5,19.6,30.05,West,271,1.0,4.0,61,0.00,,,0.00,Wunderground v.1.15,2013-03-04 23:38:00,
2013-03-04 18:44:00,31.5,19.6,30.05,West,281,1.0,10.0,61,0.00,,,0.00,Wunderground v.1.15,2013-03-04 23:44:00,
2013-03-04 18:50:00,31.4,19.9,30.06,West,267,4.0,4.0,62,0.00,,,0.00,Wunderground v.1.15,2013-03-04 23:50:00,
2013-03-04 18:56:00,31.1,19.6,30.06,WSW,243,3.0,7.0,62,0.00,,,0.00,Wunderground v.1.15,2013-03-04 23:56:00,
2013-03-04 19:02:00,31.3,19.8,30.06,WSW,250,4.0,4.0,62,0.00,,,0.00,Wunderground v.1.15,2013-03-05 00:02:00,
2013-03-04 19:08:00,31.3,19.8,30.06,WSW,250,2.0,4.0,62,0.00,,,0.00,Wunderground v.1.15,2013-03-05 00:08:00,
2013-03-04 19:14:00,31.1,19.6,30.06,WSW,250,0.0,1.0,62,0.00,,,0.00,Wunderground v.1.15,2013-03-05 00:14:00,
2013-03-04 19:20:00,30.6,19.5,30.06,WSW,250,0.0,0.0,63,0.00,,,0.00,Wunderground v.1.15,2013-03-05 00:20:00,
2013-03-04 19:26:00,29.8,19.5,30.06,WSW,250,0.0,0.0,65,0.00,,,0.00,Wunderground v.1.15,2013-03-05 00:26:00,
2013-03-04 19:32:00,29.1,19.5,30.06,SSE,165,0.0,3.0,67,0.00,,,0.00,Wunderground v.1.15,2013-03-05 00:32:00,
2013-03-04 19:38:00,28.7,20.1,30.06,SE,143,2.0,3.0,70,0.00,,,0.00,Wunderground v.1.15,2013-03-05 00:38:00,
2013-03-04 19:44:00,28.3,19.8,30.06,SE,143,2.0,3.0,70,0.00,,,0.00,Wunderground v.1.15,2013-03-05 00:44:00,
2013-03-04 19:50:00,27.9,20.0,30.06,SE,143,1.0,1.0,72,0.00,,,0.00,Wunderground v.1.15,2013-03-05 00:50:00,
2013-03-04 19:56:00,27.8,19.9,30.06,SE,144,1.0,1.0,72,0.00,,,0.00,Wunderground v.1.15,2013-03-05 00:56:00,
2013-03-04 20:02:00,27.2,19.4,30.06,SE,144,0.0,0.0,72,0.00,,,0.00,Wunderground v.1.15,2013-03-05 01:02:00,
2013-03-04 20:08:00,26.9,19.7,30.07,SSE,153,1.0,2.0,74,0.00,,,0.00,Wunderground v.1.15,2013-03-05 01:08:00,
2013-03-04 20:14:00,27.0,19.8,30.07,SSE,153,1.0,2.0,74,0.00,,,0.00,Wunderground v.1.15,2013-03-05 01:14:00,
2013-03-04 20:20:00,27.0,19.8,30.07,SSE,153,0.0,0.0,74,0.00,,,0.00,Wunderground v.1.15,2013-03-05 01:20:00,
2013-03-04 20:26:00,26.9,19.7,30.07,SSE,153,0.0,0.0,74,0.00,,,0.00,Wunderground v.1.15,2013-03-05 01:26:00,
2013-03-04 20:32:00,26.8,19.6,30.07,South,187,0.0,2.0,74,0.00,,,0.00,Wunderground v.1.15,2013-03-05 01:32:00,
2013-03-04 20:38:00,27.0,19.8,30.07,South,188,1.0,2.0,74,0.00,,,0.00,Wunderground v.1.15,2013-03-05 01:38:00,
2013-03-04 20:44:00,27.2,19.7,30.08,South,188,0.0,1.0,73,0.00,,,0.00,Wunderground v.1.15,2013-03-05 01:44:00,
2013-03-04 20:50:00,27.1,19.6,30.08,South,188,0.0,0.0,73,0.00,,,0.00,Wunderground v.1.15,2013-03-05 01:50:00,
2013-03-04 20:56:00,26.9,19.4,30.08,South,188,0.0,0.0,73,0.00,,,0.00,Wunderground v.1.15,2013-03-05 01:56:00,
2013-03-04 21:02:00,26.6,19.4,30.08,South,188,0.0,0.0,74,0.00,,,0.00,Wunderground v.1.15,2013-03-05 02:02:00,
2013-03-04 21:08:00,26.5,19.6,30.08,South,188,0.0,1.0,75,0.00,,,0.00,Wunderground v.1.15,2013-03-05 02:08:00,
2013-03-04 21:14:00,26.1,19.6,30.08,South,188,0.0,1.0,76,0.00,,,0.00,Wunderground v.1.15,2013-03-05 02:14:00,
2013-03-04 21:20:00,25.8,19.3,30.08,South,190,1.0,2.0,76,0.00,,,0.00,Wunderground v.1.15,2013-03-05 02:20:00,
2013-03-04 21:26:00,25.9,19.4,30.08,SSW,211,1.0,3.0,76,0.00,,,0.00,Wunderground v.1.15,2013-03-05 02:26:00,
2013-03-04 21:32:00,25.9,19.1,30.08,SSW,212,1.0,2.0,75,0.00,,,0.00,Wunderground v.1.15,2013-03-05 02:32:00,
2013-03-04 21:38:00,25.9,19.4,30.08,SSW,212,1.0,2.0,76,0.00,,,0.00,Wunderground v.1.15,2013-03-05 02:38:00,
2013-03-04 21:44:00,26.0,19.2,30.08,SSW,212,0.0,1.0,75,0.00,,,0.00,Wunderground v.1.15,2013-03-05 02:44:00,
2013-03-04 21:50:00,26.0,19.2,30.08,SSW,212,0.0,0.0,75,0.00,,,0.00,Wunderground v.1.15,2013-03-05 02:50:00,
2013-03-04 21:56:00,25.7,18.6,30.07,SSW,212,0.0,0.0,74,0.00,,,0.00,Wunderground v.1.15,2013-03-05 02:56:00,
2013-03-04 22:02:00,25.4,18.9,30.08,SSW,211,0.0,1.0,76,0.00,,,0.00,Wunderground v.1.15,2013-03-05 03:02:00,
2013-03-04 22:08:00,25.2,18.4,30.08,SSW,211,0.0,1.0,75,0.00,,,0.00,Wunderground v.1.15,2013-03-05 03:08:00,
2013-03-04 22:14:00,24.8,18.6,30.08,SSW,211,0.0,0.0,77,0.00,,,0.00,Wunderground v.1.15,2013-03-05 03:14:00,
2013-03-04 22:20:00,24.6,18.4,30.08,SSW,211,0.0,0.0,77,0.00,,,0.00,Wunderground v.1.15,2013-03-05 03:20:00,
2013-03-04 22:26:00,24.3,18.4,30.08,SSW,211,0.0,0.0,78,0.00,,,0.00,Wunderground v.1.15,2013-03-05 03:26:00,
2013-03-04 22:32:00,23.7,17.5,30.08,SSW,211,0.0,0.0,77,0.00,,,0.00,Wunderground v.1.15,2013-03-05 03:32:00,
2013-03-04 22:38:00,23.1,17.6,30.08,SSW,211,0.0,2.0,79,0.00,,,0.00,Wunderground v.1.15,2013-03-05 03:38:00,
2013-03-04 22:44:00,23.0,17.7,30.08,West,261,1.0,2.0,80,0.00,,,0.00,Wunderground v.1.15,2013-03-05 03:44:00,
2013-03-04 22:50:00,24.3,19.3,30.08,SW,227,2.0,4.0,81,0.00,,,0.00,Wunderground v.1.15,2013-03-05 03:50:00,
2013-03-04 22:56:00,24.8,18.9,30.08,SW,221,2.0,4.0,78,0.00,,,0.00,Wunderground v.1.15,2013-03-05 03:56:00,
2013-03-04 23:02:00,24.8,18.9,30.08,WSW,240,1.0,1.0,78,0.00,,,0.00,Wunderground v.1.15,2013-03-05 04:02:00,
2013-03-04 23:08:00,24.7,18.5,30.07,West,271,1.0,6.0,77,0.00,,,0.00,Wunderground v.1.15,2013-03-05 04:08:00,
2013-03-04 23:14:00,25.8,19.6,30.07,West,259,3.0,5.0,77,0.00,,,0.00,Wunderground v.1.15,2013-03-05 04:14:00,
2013-03-04 23:20:00,27.2,19.7,30.07,West,260,3.0,3.0,73,0.00,,,0.00,Wunderground v.1.15,2013-03-05 04:20:00,
2013-03-04 23:26:00,27.9,19.7,30.08,West,265,3.0,4.0,71,0.00,,,0.00,Wunderground v.1.15,2013-03-05 04:26:00,
2013-03-04 23:32:00,28.0,19.5,30.08,WSW,244,3.0,3.0,70,0.00,,,0.00,Wunderground v.1.15,2013-03-05 04:32:00,
2013-03-04 23:38:00,27.3,18.8,30.08,WSW,244,2.0,3.0,70,0.00,,,0.00,Wunderground v.1.15,2013-03-05 04:38:00,
2013-03-04 23:44:00,27.7,19.2,30.08,WSW,244,4.0,6.0,70,0.00,,,0.00,Wunderground v.1.15,2013-03-05 04:44:00,
2013-03-04 23:50:00,27.6,19.1,30.08,SW,231,4.0,5.0,70,0.00,,,0.00,Wunderground v.1.15,2013-03-05 04:50:00,
2013-03-04 23:56:00,27.3,19.1,30.08,West,260,5.0,6.0,71,0.00,,,0.00,Wunderground v.1.15,2013-03-05 04:56:00,